TimeEDT,TemperatureF,Dew PointF,Humidity,Sea Level PressureIn,VisibilityMPH,Wind Direction,Wind SpeedMPH,Gust SpeedMPH,PrecipitationIn,Events,Conditions,WindDirDegrees,DateUTC
12:54 AM,69.1,48.9,49,30.09,10.0,NE,11.5,-,N/A,,Scattered Clouds,50,2013-09-09 04:54:00
1:54 AM,66.9,46.0,47,30.10,10.0,ENE,12.7,-,N/A,,Mostly Cloudy,60,2013-09-09 05:54:00
2:54 AM,64.9,45.0,48,30.10,10.0,NE,10.4,-,N/A,,Mostly Cloudy,40,2013-09-09 06:54:00
3:54 AM,64.9,44.1,47,30.11,10.0,NE,11.5,-,N/A,,Mostly Cloudy,40,2013-09-09 07:54:00
4:54 AM,63.0,44.1,50,30.13,10.0,NNE,8.1,-,N/A,,Mostly Cloudy,20,2013-09-09 08:54:00
5:54 AM,62.1,44.1,52,30.16,10.0,NNE,4.6,-,N/A,,Mostly Cloudy,20,2013-09-09 09:54:00
6:54 AM,62.1,44.1,52,30.17,10.0,NE,6.9,-,N/A,,Mostly Cloudy,50,2013-09-09 10:54:00
7:54 AM,63.0,45.0,52,30.19,10.0,NNE,5.8,-,N/A,,Mostly Cloudy,30,2013-09-09 11:54:00
8:54 AM,64.0,46.0,52,30.19,10.0,NE,6.9,-,N/A,,Mostly Cloudy,40,2013-09-09 12:54:00
9:54 AM,66.9,48.9,52,30.20,10.0,East,9.2,-,N/A,,Mostly Cloudy,80,2013-09-09 13:54:00
10:54 AM,70.0,51.1,51,30.21,10.0,East,6.9,-,N/A,,Overcast,80,2013-09-09 14:54:00
11:54 AM,72.0,54.0,53,30.19,10.0,ESE,5.8,-,N/A,,Overcast,120,2013-09-09 15:54:00
12:54 PM,73.9,55.9,53,30.19,10.0,Variable,4.6,-,N/A,,Overcast,0,2013-09-09 16:54:00
1:54 PM,75.0,57.0,53,30.18,10.0,SSE,4.6,-,N/A,,Overcast,160,2013-09-09 17:54:00
2:54 PM,73.9,57.9,57,30.17,10.0,Variable,3.5,-,N/A,,Overcast,0,2013-09-09 18:54:00
3:54 PM,77.0,57.9,52,30.15,10.0,SSE,5.8,-,N/A,,Mostly Cloudy,160,2013-09-09 19:54:00
4:54 PM,78.1,57.0,48,30.14,10.0,Variable,6.9,-,N/A,,Mostly Cloudy,0,2013-09-09 20:54:00
5:54 PM,77.0,59.0,54,30.13,10.0,SSE,5.8,-,N/A,,Mostly Cloudy,150,2013-09-09 21:54:00
6:54 PM,75.0,60.1,60,30.13,10.0,SSE,3.5,-,N/A,,Mostly Cloudy,160,2013-09-09 22:54:00
7:54 PM,73.9,62.1,66,30.13,10.0,Variable,3.5,-,N/A,,Mostly Cloudy,0,2013-09-09 23:54:00
8:54 PM,73.9,63.0,68,30.14,10.0,SSE,3.5,-,N/A,,Overcast,160,2013-09-10 00:54:00
9:34 PM,73.4,64.4,73,30.15,10.0,SSE,4.6,-,N/A,,Overcast,160,2013-09-10 01:34:00
9:54 PM,73.0,64.0,73,30.15,10.0,Calm,Calm,-,N/A,,Overcast,0,2013-09-10 01:54:00
10:54 PM,73.0,66.0,79,30.16,10.0,Calm,Calm,-,N/A,,Overcast,0,2013-09-10 02:54:00
11:54 PM,73.0,66.9,81,30.15,10.0,South,3.5,-,N/A,,Mostly Cloudy,180,2013-09-10 03:54:00